Location: ??? ???
(33.4974°N, 35.4618°E)
Time: 11:18:31
(UTC+00:00)

USA 306 - Pass Details

Date: 29 October 2020
Orbit: 569 x 577 km, 54.0° (Epoch: 22 November)

Event Time Altitude Azimuth Distance (km) Brightness Sun altitude
Rises 16:23:16 0° 327° (NNW) 2,780 6.8 -20.2°
Reaches altitude 10° 16:25:50 10° 340° (NNW) 1,878 5.7 -20.8°
Enters shadow 16:28:16 23° 11° (NNE) 1,248 4.5 -21.3°
